Regional Weather Roundup
Issued by NWS

Home | Current Version | Previous Version | Graphics & Text | Print | Product List | Glossary On
Versions: 1 2 3 4 5 6 7 8 9 10 11 12 13 14 15 16 17 18 19 20 21 22 23 24 25 26 27 28 29 30 31 32 33 34 35 36 37 38 39 40 41 42 43 44 45 46 47 48 49 50
000
ASUS43 KLOT 232109
RWRIL

ILLINOIS REGIONAL WEATHER ROUNDUP
NATIONAL WEATHER SERVICE CHICAGO/ROMEOVILLE IL
400 PM CDT MON OCT 23 2017

NOTE: "FAIR" INDICATES FEW OR NO CLOUDS BELOW 12,000 FEET WITH NO
SIGNIFICANT WEATHER AND/OR OBSTRUCTIONS TO VISIBILITY.

* THESE STATIONS ARE NOT UNDER NWS QUALITY CONTROL. THEY ALSO MAY NOT
  REPORT WEATHER SUCH AS PRECIPITATION OR FOG.

ILZ001-002-007-009-015-016-024-232200-
NORTHWEST ILLINOIS

CITY           SKY/WX    TMP DP  RH WIND       PRES   REMARKS
MOLINE         CLOUDY    60  45  57 NW14      29.75R
STERLING*      MOSUNNY   58  49  72 W9          N/A
SAVANNA*       CLOUDY    59  45  58 W8G17     29.73S
$$

ILZ003-004-008-010-011-017-018-232200-
NORTH CENTRAL ILLINOIS

CITY           SKY/WX    TMP DP  RH WIND       PRES   REMARKS
ROCKFORD       CLOUDY    54  44  69 SW3       29.73
FREEPORT*      CLOUDY    57  43  59 W8        29.74R
ROCHELLE*      CLOUDY    54  43  67 W3        29.72S
DE KALB*       CLOUDY    52  44  75 W6        29.72S
PERU*          CLOUDY    54  44  68 SW5       29.74F
$$

ILZ005-006-012>014-019>023-232200-
NORTHEAST ILLINOIS

CITY           SKY/WX    TMP DP  RH WIND       PRES   REMARKS
CHICAGO-OHARE  CLOUDY    54  47  77 NW8       29.69S
CHICAGO-MIDWAY CLOUDY    53  50  89 W8        29.69F
AURORA         CLOUDY    53  49  86 W9        29.73R
LANSING*       CLOUDY    52  51  96 W6        29.70F
JOLIET*        CLOUDY    54  50  87 W3        29.73R
WAUKEGAN       CLOUDY    52  49  89 W3        29.69F
DUPAGE AIRPORT CLOUDY    52  50  93 W7        29.70S
KANKAKEE*      CLOUDY    51  50  97 W6        29.72F
WHEELING       CLOUDY    54  50  86 NW6       29.70R
MORRIS*        CLOUDY    53  50  89 W7        29.72S
ROMEOVILLE*    CLOUDY    52  49  89 W6        29.72R
NORTHERLY ISL    N/A     53  48  83 NW8         N/A
$$

LMZ740>746-232200-
SOUTHERN LAKE MICHIGAN

STATION/POSITION SKY/WX   TEMP    WIND        PRES    VSBY  WAVE
                          AIR SEA DIR/SP/G                  HT/PER
                          (F)     (DEG/KT/KT) (MB)    (MI)  (FT/S)
SOUTHERN BUOY              54 60  350/ 17/ 19 1004.5R         3/ 4
WILMETTE HARBOR            53 57  310/ 10/ 12   N/A           3/ 5
HARRISON CRIB              54     300/ 12/ 13   N/A
BURNHAM HARBOR             53     240/  9/ 11   N/A
CALUMET HARBOR             53     290/  4/  8 1005.2R
BURNS HARBOR               54     340/ 19/ 21 1005.1S
MICHIGAN CITY              53     310/ 25/ 27   N/A
MICHIGAN CITY 6N           53 57  320/ 19/ 25   N/A           6/ 6
ST. JOSEPH                 55 58  350/ 21/ 27 1003.6          6/ 5
$$

ILZ025>027-034>036-040-047-049-050-058-095>099-232200-
WEST-CENTRAL ILLINOIS

CITY           SKY/WX    TMP DP  RH WIND       PRES   REMARKS
QUINCY         PTSUNNY   61  43  51 NW16G25   29.81
MACOMB*        PTSUNNY   60  47  61 W14       29.79R
JACKSONVILLE*  SUNNY     68  42  38 W10G16    29.74F
PITTSFIELD*    CLOUDY    65  44  48 W16G25    29.79R
$$

ILZ028>032-037-038-041>044-048-051>054-059>061-232200-
CENTRAL ILLINOIS

CITY           SKY/WX    TMP DP  RH WIND       PRES   REMARKS
PONTIAC        MOSUNNY   55  50  86 W9        29.74S
BLOOMINGTON    CLOUDY    54  45  71 W5        29.75
DECATUR        CLOUDY    54  46  74 W3        29.76
PEORIA         MOSUNNY   61  43  51 W8        29.73
LACON*         CLOUDY    56  46  68 SW3       29.72F
LINCOLN*       CLOUDY    60  46  59 CALM      29.74F
SPRINGFIELD    CLOUDY    65  45  48 VRB3      29.75F
TAYLORVILLE    MOSUNNY   62  43  48 W5        29.77S
$$

ILZ033-039-045-046-055>057-062-063-232200-
EAST-CENTRAL ILLINOIS

CITY           SKY/WX    TMP DP  RH WIND       PRES   REMARKS
CHAMPAIGN      CLOUDY    54  50  86 W6        29.75
DANVILLE*      LGT RAIN  52  51  95 W8        29.71R
RANTOUL*       CLOUDY    55  51  87 W6        29.74F
MATTOON        LGT RAIN  51 N/A N/A N3        29.75F
PARIS*         LGT RAIN  52  51  97 NW8       29.76F
$$

ILZ079-100>102-232200-
SOUTHWEST ILLINOIS

CITY           SKY/WX    TMP DP  RH WIND       PRES   REMARKS
ALTON          MOSUNNY   66  46  48 W9        29.78F
CAHOKIA*       SUNNY     71  41  33 W8        29.78F
SPARTA*        SUNNY     66  44  45 SW7       29.81F
$$

ILZ064>066-069>071-074>076-080>082-084>086-088>090-092>094-232200-
SOUTH-CENTRAL ILLINOIS

CITY           SKY/WX    TMP DP  RH WIND       PRES   REMARKS
CARBONDALE     SUNNY     64  47  53 W7        29.82F
CAIRO*         SUNNY     66  45  45 SW10      29.85F
EFFINGHAM*     PTSUNNY   53  51  94 SW5       29.80F
MARION         MOSUNNY   61  48  63 SW6       29.84F
MT. VERNON     CLOUDY    60  45  57 W5        29.81
CENTRALIA*     SUNNY     62  47  59 W5        29.80F
SALEM*         SUNNY     61  42  51 W3        29.80F
METROPOLIS*    SUNNY     65  43  44 SW8       29.86S
$$

ILZ067-068-072-073-078-083-087-091-232200-
SOUTHEAST ILLINOIS

CITY           SKY/WX    TMP DP  RH WIND       PRES   REMARKS
LAWRENCEVILLE  LGT RAIN  54  49  83 NW20      29.79R
FLORA*         CLOUDY    58  47  67 NW6       29.81S
FAIRFIELD*     CLOUDY    56  46  67 CALM      29.81R
HARRISBURG*    CLOUDY    59  49  68 S10       29.84S
ROBINSON*      LGT RAIN  52  49  91 NW14      29.79S
CARMI*         CLOUDY    55  48  75 W10       29.81F
$$

ABBREVIATIONS USED IN REMARKS
   TC - TEMPERATURE IN CELSIUS
  WCI - WIND CHILL INDEX
   HX - HEAT INDEX
  VSB - VISIBILITY
$$





USA.gov is the U.S. government's official web portal to all federal, state and local government web resources and services.